FW4540 Weather Reports


time (UTC)temp
F
wind
direction
speed
knots
gust
knots
rain 1hr
in
rain 24hr
in
rain mn
in
humidity
%
barometer
mb
20260505092002 58 157 3.5 7.8 0.00 0.23 0.23 95 9.1
20260505085028 56 157 2.6 7.8 0.00 0.23 0.23 95 9.1
20260505084028 56 202 1.7 5.2 0.00 0.23 0.23 96 9.2
20260505082028 56 180 1.7 5.2 0.00 0.23 0.23 96 9.1
20260505081028 56 157 0.9 4.3 0.00 0.23 0.23 96 9.2
20260505080028 56 157 0.9 4.3 0.00 0.23 0.23 97 9.1
20260505074028 56 180 0.9 3.5 0.01 0.23 0.23 97 9.0
20260505073028 55 157 0.0 2.6 0.01 0.23 0.23 97 9.1
20260505072027 55 180 0.0 1.7 0.01 0.23 0.23 98 9.1
20260505071028 55 0 0.0 0.0 0.01 0.23 0.23 98 9.2
20260505070028 55 0 0.0 0.0 0.01 0.23 0.23 98 9.2
20260505064028 54 0 0.0 0.0 0.00 0.22 0.22 99 9.2
20260505063028 54 292 0.0 0.9 0.00 0.22 0.22 99 9.3
20260505061027 54 0 0.0 0.0 0.00 0.22 0.22 99 9.3
20260505060028 54 0 0.0 0.0 0.00 0.22 0.22 99 9.3
20260505055027 54 0 0.0 0.0 0.01 0.22 0.22 99 9.3
20260505054028 53 0 0.0 0.0 0.01 0.22 0.22 99 9.4
20260505053028 53 0 0.0 0.0 0.01 0.22 0.22 99 9.5
20260505052028 53 0 0.0 0.0 0.02 0.22 0.22 99 9.4
20260505051027 53 0 0.0 0.0 0.02 0.22 0.22 99 9.4
20260505041027 54 112 1.7 2.6 0.02 0.20 0.20 99 9.7
20260505040028 54 90 1.7 2.6 0.02 0.20 0.20 99 9.9
20260505035027 54 112 2.6 3.5 0.01 0.20 0.20 99 9.9
20260505034027 54 90 2.6 5.2 0.01 0.20 0.20 99 10.0
20260505033027 54 112 1.7 2.6 0.01 0.19 0.19 98 10.1
20260505032027 54 112 0.9 2.6 0.01 0.19 0.19 98 10.2
20260505031027 54 112 0.9 3.5 0.02 0.19 0.19 98 10.3
20260505030027 54 135 0.9 2.6 0.03 0.19 0.19 98 10.4
20260505025027 54 112 1.7 2.6 0.06 0.19 0.19 98 10.4
20260505024027 54 135 2.6 4.3 0.07 0.19 0.19 99 10.6
20260505023027 54 135 1.7 3.5 0.08 0.18 0.18 98 10.7
20260505022027 54 112 2.6 6.1 0.09 0.18 0.18 99 10.7
20260505021027 54 112 2.6 4.3 0.09 0.17 0.17 99 10.8
20260505020027 54 135 2.6 5.2 0.09 0.16 0.16 99 10.8
20260505015027 54 112 2.6 5.2 0.07 0.13 0.13 99 10.9
20260505014027 54 112 2.6 5.2 0.06 0.12 0.12 98 10.9
20260505013027 54 112 2.6 3.5 0.06 0.10 0.10 98 11.0
20260505012027 54 112 1.7 3.5 0.05 0.09 0.09 98 11.0
20260505011027 54 135 1.7 3.5 0.05 0.08 0.08 98 11.1
20260505005027 54 135 1.7 3.5 0.05 0.06 0.06 98 11.3
20260505004027 54 135 1.7 3.5 0.05 0.06 0.06 98 11.4
20260505003027 54 135 0.9 2.6 0.05 0.05 0.05 98 11.6
20260505002027 54 135 0.0 0.9 0.04 0.04 0.04 98 11.6
20260504235027 54 135 0.0 2.6 0.02 0.02 0.02 98 11.8
20260504233027 54 135 0.0 0.9 0.00 0.00 0.00 98 11.9
20260504232027 53 0 0.0 0.0 0.00 0.00 0.00 98 11.8
20260504230027 53 0 0.0 0.0 0.00 0.00 0.00 99 11.8
20260504224027 52 0 0.0 0.0 0.00 0.00 0.00 98 11.9
20260504222027 52 0 0.0 0.0 0.00 0.00 0.00 98 11.7
20260504221027 52 0 0.0 0.0 0.00 0.00 0.00 98 11.8
20260504220027 52 0 0.0 0.0 0.00 0.25 0.25 98 11.8
20260504215027 52 0 0.0 0.0 0.00 0.25 0.25 98 12.0
20260504214027 51 0 0.0 0.0 0.00 0.25 0.25 97 12.0
20260504213027 52 0 0.0 0.0 0.00 0.25 0.25 97 12.0
20260504211027 52 0 0.0 0.0 0.00 0.25 0.25 97 12.0
20260504210027 53 0 0.0 0.0 0.00 0.25 0.25 97 12.1
20260504205027 53 0 0.0 0.0 0.00 0.25 0.25 96 12.2
20260504204026 53 0 0.0 0.0 0.00 0.25 0.25 96 12.2
20260504203027 53 0 0.0 0.0 0.00 0.25 0.25 95 12.4
20260504202027 53 0 0.0 0.0 0.00 0.25 0.25 95 12.3
20260504201027 54 0 0.0 0.0 0.00 0.25 0.25 94 12.3
20260504200027 54 225 0.0 2.6 0.00 0.25 0.25 93 12.3
20260504195027 55 225 0.9 2.6 0.00 0.25 0.25 93 12.2
20260504194026 55 225 0.0 1.7 0.00 0.25 0.25 92 12.1
20260504193027 55 225 0.9 3.5 0.00 0.25 0.25 92 12.1
20260504192027 56 225 0.0 2.6 0.00 0.25 0.25 91 12.1
20260504191026 56 0 0.0 0.0 0.00 0.25 0.25 90 12.1
20260504190027 56 202 0.9 3.5 0.00 0.25 0.25 90 12.2
20260504184026 57 180 2.6 6.1 0.00 0.25 0.25 88 12.2
20260504182027 57 157 3.5 10.4 0.00 0.25 0.25 88 12.3
20260504180027 58 157 3.5 7.8 0.00 0.25 0.25 86 12.3
20260504174026 59 225 2.6 7.8 0.00 0.25 0.25 87 12.2
20260504173027 59 180 3.5 7.0 0.00 0.25 0.25 86 12.3
20260504172026 59 180 0.9 2.6 0.00 0.25 0.25 87 12.4
20260504171026 59 180 1.7 6.1 0.00 0.25 0.25 86 12.5
20260504151026 58 157 5.2 12.2 0.00 0.25 0.25 93 13.3
20260504141026 55 157 3.5 7.8 0.00 0.25 0.25 94 13.9